Flag for Germany Weather past 2 weeks in Elmshorn, Schleswig-Holstein, Germany

Now
55 °F

Sunny.


Feels Like: 53 °F
Forecast: 40 / 56 °F
Wind: 10 mph from Northwest

Location: Hamburg-Fuhlsbuettel

Current Time: Apr 18, 2015 at 6:30:53 PM

Latest Report: Apr 18, 2015 at 5:50 PM


Visibility: 10 mi

Pressure: 30.24 "Hg

Humidity: 47%

Dew point: 36 °F

Location of ElmshornLocation

Historic Weather in Elmshorn — Graph

°F

Elmshorn temperature yesterday

Maximum temperature yesterday: 55 °F (at 3:20 PM)
Minimum temperature yesterday: 37 °F (at 3:50 AM)
Average temperature yesterday: 46 °F

Past Weeks' High & Low Weather Summary

 TemperatureHumidityPressure
High70 °F (Apr 15, 3:20 PM)100% (Apr 4, 4:50 AM)30.57 "Hg (Apr 4, 4:50 AM)
Low27 °F (Apr 5, 5:20 AM)30% (Apr 5, 2:20 PM)29.83 "Hg (Apr 15, 3:50 PM)
Average47 °F71%30.20 "Hg
* Reported Apr 3 5:20 PM — Apr 18 5:20 PM, Elmshorn, Weather by CustomWeather, © 2015

Note: Actual official high and low records may vary slightly from our data, if they occured in-between our weather recording intervals... More about our weather records

Advertising

Elmshorn weather history for previous 24 hours

 ConditionsComfort  
Time TempWeatherWind HumidityBarometerVisibility
5:20 PM
Sat, Apr 18
54 °FSunny.12 mph41%30.24 "Hg10 mi
4:50 PM55 °FPassing clouds.10 mph38%30.27 "HgN/A
4:20 PM54 °FPassing clouds.7 mph44%30.27 "HgN/A
3:50 PM54 °FPassing clouds.10 mph41%30.27 "HgN/A
3:20 PM54 °FPassing clouds.8 mph47%30.30 "HgN/A
2:50 PM54 °FPassing clouds.10 mph41%30.30 "HgN/A
2:20 PM54 °FScattered clouds.9 mph44%30.30 "HgN/A
1:50 PM54 °FScattered clouds.7 mph44%30.30 "HgN/A
1:20 PM52 °FScattered clouds.8 mph44%30.33 "HgN/A
12:50 PM54 °FScattered clouds.9 mph44%30.33 "HgN/A
12:20 PM52 °FScattered clouds.7 mph47%30.33 "HgN/A
11:50 AM50 °FScattered clouds.8 mph47%30.33 "HgN/A
11:20 AM50 °FScattered clouds.9 mph50%30.33 "HgN/A
10:50 AM50 °FScattered clouds.10 mph58%30.33 "HgN/A
10:20 AM48 °FScattered clouds.8 mph54%30.33 "HgN/A
9:50 AM48 °FPassing clouds.7 mph58%30.33 "HgN/A
9:20 AM46 °FPassing clouds.6 mph71%30.33 "HgN/A
8:50 AM45 °FSunny.5 mph81%30.33 "Hg10 mi
8:20 AM43 °FSunny.5 mph87%30.33 "Hg10 mi
7:50 AM37 °FSunny.2 mph93%30.30 "Hg10 mi
7:20 AM34 °FSunny.1 mph93%30.30 "Hg10 mi
6:50 AM32 °FFog.2 mph93%30.30 "HgN/A
6:20 AM32 °FClear.5 mph93%30.30 "Hg10 mi
5:50 AM30 °FPassing clouds.3 mph93%30.27 "HgN/A
5:20 AM32 °FClear.3 mph87%30.27 "Hg10 mi
4:50 AM32 °FClear.5 mph93%30.27 "Hg10 mi
4:20 AM37 °FClear.6 mph87%30.27 "Hg10 mi
3:50 AM37 °FClear.6 mph81%30.27 "Hg10 mi
3:20 AM37 °FClear.7 mph87%30.24 "Hg10 mi
2:50 AM34 °FClear.6 mph87%30.24 "Hg10 mi
2:20 AM39 °FClear.6 mph81%30.24 "Hg10 mi
1:50 AM41 °FClear.7 mph76%30.24 "Hg10 mi
1:20 AM39 °FClear.5 mph81%30.21 "Hg10 mi
12:50 AM41 °FClear.5 mph76%30.21 "Hg10 mi
12:20 AM43 °FClear.6 mph71%30.21 "Hg10 mi
11:50 PM
Fri, Apr 17
41 °FClear.6 mph76%30.21 "Hg10 mi
11:20 PM41 °FPassing clouds.6 mph76%30.18 "HgN/A
10:50 PM41 °FPassing clouds.5 mph76%30.18 "HgN/A
10:20 PM45 °FPassing clouds.6 mph66%30.18 "HgN/A
9:50 PM48 °FPassing clouds.6 mph58%30.15 "HgN/A
9:20 PM48 °FPassing clouds.10 mph58%30.12 "HgN/A
8:50 PM50 °FPassing clouds.8 mph50%30.12 "HgN/A
8:20 PM50 °FPassing clouds.7 mph50%30.09 "HgN/A
7:50 PM50 °FPassing clouds.8 mph47%30.09 "HgN/A
7:20 PM52 °FPassing clouds.9 mph44%30.09 "HgN/A
6:50 PM52 °FPassing clouds.13 mph41%30.07 "HgN/A
6:20 PM52 °FPassing clouds.15 mph44%30.07 "HgN/A
Weather by CustomWeather, © 2015

See weather overviewHow to use our weather pages